sat.trackr.live / text

‹ back to catalog

PAZ

NORAD 43215 · 2018-020A

PAYLOAD ACTIVE UNKNOWN

§ Identity

Operator
Country
SPN
Launch date
2018-02-22
Launch site
AFWTR
Launch vehicle
Mass (kg)
RCS (m²)

External: N2YO · Heavens-Above · Gunter

§ Orbital elements

Epoch: 2026-05-25T04:26:10.169088Z

Period
94.79 min
Inclination
97.4452°
Eccentricity
0.0001660
Mean motion
15.19157580 rev/d
Perigee alt
507.2 km
Apogee alt
509.5 km
Semi-major
6,886.5 km
B*
8.0463e-5
RAAN
152.8978°
Arg perigee
88.9807°
Mean anomaly
271.1617°
Rev number
45,751

§ Raw data

PAZ1 43215U 18020A   26145.18483992  .00001623  00000+0  80463-4 0  99942 43215  97.4452 152.8978 0001660  88.9807 271.1617 15.19157580457510

JSON: /api/v1/satellites/43215 · /tle

For live sub-satellite position, see the globe view (requires WebGL).

§ Visibility from observer

Set your observer location to see the next 7 days of passes ≥ 10°. The values pass through the URL so the page stays shareable.

No JS? Fill the form by hand. The geolocation button needs JavaScript.

§ Radio — SatNOGS DB

ModeDescriptionDownlinkUplink
FM Mode S - wideband 2.285 GHz
FM Mode X dumps (Spain) 8.150 GHz

2 transmitters · refreshed weekly from db.satnogs.org